Kaltag, AK

9:18 AM AKDT on April 24, 2018 (GMT -0800)
Kaltag

Weather History for PAKV - January, 2013

Change the Weather History Date:

Thursday, January 3, 2013

  Actual Average (PAGA) Record (PAGA)
Temperature  
Mean Temperature 20 °F -  
Max Temperature 28 °F 3 °F 37 °F (2016)
Min Temperature 12 °F -9 °F -59 °F (1975)
Degree Days  
Heating Degree Days 45    
Moisture  
Dew Point 12 °F    
Average Humidity 67    
Maximum Humidity 78    
Minimum Humidity 56    
Precipitation  
Precipitation 0.00 in - - ()
Sea Level Pressure  
Sea Level Pressure 29.52 in    
Wind  
Wind Speed 1 mph (SE)    
Max Wind Speed 9 mph    
Max Gust Speed -    
Visibility 10 miles    
Events Snow    
Averages and records for this station are not official NWS values.
T = Trace of Precipitation, MM = Missing Value Source: NWS Daily Summary

Daily Weather History Graph

Daily Weather History Graph

Search for Another Location

Airport or City:

Astronomy

Jan. 03, 2013 Rise Set
Actual Time 11:26 AM AKST 3:53 PM AKST
Civil Twilight 10:10 AM AKST 5:09 PM AKST
Nautical Twilight 9:02 AM AKST 6:17 PM AKST
Astronomical Twilight 8:02 AM AKST 7:17 PM AKST
Moon 12:10 AM AKST (1/3) 11:58 AM AKST (1/3)
Length of Visible Light 6h 59m
Length of Day
4h 27m
Waning Gibbous, 64% of the Moon is Illuminated
Jan 3
Waning Gibbous
Jan 4
Last Quarter
Jan 11
New
Jan 18
First Quarter
Jan 26
Full

Hourly Weather History & Observations

Time (AKST) Temp. Windchill Dew Point Humidity Pressure Visibility Wind Dir Wind Speed Gust Speed Precip Events Conditions
12:04 AM 19.4 °F - 10.4 °F 68% 29.45 in 5.0 mi Calm Calm - 0.00 in Snow Light Snow
12:53 AM 21.9 °F 17.2 °F 14.0 °F 72% 29.47 in 10.0 mi South 3.5 mph - 0.00 in   Overcast
1:53 AM 21.0 °F - 14.0 °F 74% 29.47 in 10.0 mi Calm Calm - N/A   Overcast
3:53 AM 23.0 °F - 14.0 °F 68% 29.47 in 10.0 mi Calm Calm - N/A   Overcast
4:53 AM 21.0 °F - 12.9 °F 71% 29.47 in 10.0 mi Calm Calm - N/A   Overcast
5:53 AM 21.9 °F - 14.0 °F 72% 29.47 in 10.0 mi Calm Calm - N/A   Overcast
6:53 AM 28.9 °F 25.2 °F 19.0 °F 67% 29.48 in 10.0 mi ENE 3.5 mph - N/A   Overcast
7:53 AM 25.0 °F - 18.0 °F 75% 29.48 in 10.0 mi Calm Calm - N/A   Scattered Clouds
8:53 AM 26.1 °F - 18.0 °F 71% 29.48 in 10.0 mi Calm Calm - N/A   Mostly Cloudy
9:53 AM 28.0 °F - 19.0 °F 69% 29.50 in 10.0 mi Calm Calm - N/A   Overcast
10:53 AM 26.1 °F 21.9 °F 16.0 °F 66% 29.52 in 10.0 mi ENE 3.5 mph - N/A   Clear
11:53 AM 19.9 °F 14.9 °F 12.0 °F 71% 29.52 in 10.0 mi ENE 3.5 mph - N/A   Mostly Cloudy
12:53 PM 18.0 °F - 12.0 °F 78% 29.53 in 10.0 mi Calm Calm - N/A   Clear
1:53 PM 17.1 °F - 6.1 °F 62% 29.54 in 10.0 mi Calm Calm - N/A   Clear
2:53 PM 19.0 °F 12.3 °F 8.1 °F 62% 29.53 in 10.0 mi SW 4.6 mph - N/A   Clear
3:53 PM 19.0 °F - 7.0 °F 59% 29.53 in 10.0 mi Calm Calm - N/A   Clear
4:53 PM 19.0 °F 13.9 °F 8.1 °F 62% 29.53 in 10.0 mi SW 3.5 mph - N/A   Clear
5:53 PM 21.0 °F 16.2 °F 8.1 °F 57% 29.54 in 10.0 mi WSW 3.5 mph - N/A   Scattered Clouds
6:53 PM 27.0 °F 20.5 °F 17.1 °F 66% 29.54 in 10.0 mi NE 5.8 mph - N/A   Overcast
7:53 PM 28.9 °F 20.4 °F 15.1 °F 56% 29.55 in 10.0 mi NE 9.2 mph - N/A   Partly Cloudy
8:53 PM 19.0 °F - 9.0 °F 65% 29.56 in 10.0 mi Calm Calm - N/A   Clear
9:53 PM 16.0 °F - 7.0 °F 68% 29.57 in 10.0 mi Calm Calm - N/A   Clear
10:53 PM 12.9 °F - 5.0 °F 71% 29.60 in 10.0 mi Calm Calm - N/A   Clear
11:53 PM 15.1 °F 7.7 °F 3.0 °F 59% 29.62 in 10.0 mi SW 4.6 mph - N/A   Mostly Cloudy